TimeCDT,TemperatureF,Dew PointF,Humidity,Sea Level PressureIn,VisibilityMPH,Wind Direction,Wind SpeedMPH,Gust SpeedMPH,PrecipitationIn,Events,Conditions,WindDirDegrees,DateUTC
12:13 AM,62.6,60.8,94,29.75,7.0,SE,6.9,-,N/A,,Overcast,140,2013-09-19 05:13:00
12:33 AM,62.6,60.8,94,29.76,7.0,SE,4.6,-,N/A,,Overcast,140,2013-09-19 05:33:00
12:52 AM,62.6,60.8,94,29.76,10.0,SSE,3.5,-,N/A,,Overcast,150,2013-09-19 05:52:00
1:13 AM,62.6,60.8,94,29.76,10.0,SE,5.8,-,N/A,,Overcast,130,2013-09-19 06:13:00
1:33 AM,62.6,60.8,94,29.76,7.0,SE,4.6,-,N/A,,Overcast,140,2013-09-19 06:33:00
1:52 AM,62.6,60.8,94,29.76,7.0,SE,4.6,-,N/A,,Overcast,140,2013-09-19 06:52:00
2:13 AM,62.6,60.8,94,29.76,4.0,SE,4.6,-,N/A,,Overcast,140,2013-09-19 07:13:00
2:33 AM,62.6,60.8,94,29.75,4.0,SE,4.6,-,N/A,,Overcast,140,2013-09-19 07:33:00
2:52 AM,64.4,62.6,94,29.74,5.0,SSE,5.8,-,N/A,,Overcast,150,2013-09-19 07:52:00
3:13 AM,64.4,62.6,94,29.73,5.0,SSE,6.9,-,N/A,,Overcast,150,2013-09-19 08:13:00
3:33 AM,64.4,62.6,94,29.73,5.0,SSE,5.8,-,N/A,,Overcast,150,2013-09-19 08:33:00
3:52 AM,64.4,62.6,94,29.73,5.0,South,4.6,-,N/A,,Overcast,170,2013-09-19 08:52:00
4:13 AM,66.2,62.6,88,29.72,5.0,South,4.6,-,N/A,,Overcast,170,2013-09-19 09:13:00
4:33 AM,66.2,64.4,94,29.72,5.0,SSW,3.5,-,N/A,,Overcast,200,2013-09-19 09:33:00
4:52 AM,66.2,64.4,94,29.72,4.0,Calm,Calm,-,N/A,,Overcast,0,2013-09-19 09:52:00
5:13 AM,66.2,64.4,94,29.73,4.0,Calm,Calm,-,N/A,,Overcast,0,2013-09-19 10:13:00
5:33 AM,66.2,64.4,94,29.72,3.0,Calm,Calm,-,N/A,,Overcast,0,2013-09-19 10:33:00
5:52 AM,64.4,62.6,94,29.73,2.0,Calm,Calm,-,N/A,,Drizzle,0,2013-09-19 10:52:00
6:13 AM,64.4,62.6,94,29.72,2.5,East,4.6,-,N/A,,Drizzle,80,2013-09-19 11:13:00
6:33 AM,64.4,62.6,94,29.73,2.5,East,4.6,-,N/A,,Light Drizzle,100,2013-09-19 11:33:00
6:52 AM,64.4,62.6,94,29.72,4.0,ESE,8.1,-,N/A,,Overcast,120,2013-09-19 11:52:00
7:13 AM,64.4,62.6,94,29.71,4.0,East,6.9,-,N/A,,Overcast,100,2013-09-19 12:13:00
7:33 AM,64.4,62.6,94,29.71,2.0,ESE,5.8,-,N/A,,Overcast,110,2013-09-19 12:33:00
7:52 AM,64.4,62.6,94,29.69,2.5,East,4.6,-,N/A,,Overcast,100,2013-09-19 12:52:00
8:13 AM,64.4,62.6,94,29.68,3.0,ESE,6.9,-,N/A,,Overcast,110,2013-09-19 13:13:00
8:33 AM,64.4,62.6,94,29.70,4.0,Calm,Calm,-,N/A,,Overcast,0,2013-09-19 13:33:00
8:52 AM,64.4,62.6,94,29.71,4.0,Calm,Calm,-,N/A,,Overcast,0,2013-09-19 13:52:00
9:13 AM,64.4,62.6,94,29.72,4.0,Calm,Calm,-,N/A,,Overcast,0,2013-09-19 14:13:00
9:32 AM,64.4,62.6,94,29.71,4.0,Calm,Calm,-,N/A,,Overcast,0,2013-09-19 14:32:00
9:53 AM,64.4,64.4,100,29.71,1.8,Calm,Calm,-,N/A,Thunderstorm,Overcast,0,2013-09-19 14:53:00
10:13 AM,64.4,62.6,94,29.71,1.5,SSE,5.8,-,N/A,Rain-Thunderstorm,Light Thunderstorms and Rain,150,2013-09-19 15:13:00
10:32 AM,64.4,64.4,100,29.71,2.5,Calm,Calm,-,N/A,Thunderstorm,Overcast,0,2013-09-19 15:32:00
10:53 AM,66.2,64.4,94,29.70,4.0,Calm,Calm,-,N/A,,Scattered Clouds,0,2013-09-19 15:53:00
11:11 AM,66.2,64.4,94,29.68,7.0,Calm,Calm,-,N/A,Thunderstorm,Clear,0,2013-09-19 16:11:00
11:33 AM,66.2,64.4,94,29.69,10.0,SE,3.5,-,N/A,Thunderstorm,Thunderstorm,140,2013-09-19 16:33:00
11:53 AM,69.8,64.4,83,29.70,10.0,Calm,Calm,-,N/A,Thunderstorm,Overcast,0,2013-09-19 16:53:00
12:12 PM,69.8,64.4,83,29.70,10.0,SSE,3.5,-,N/A,,Overcast,150,2013-09-19 17:12:00
12:33 PM,69.8,64.4,83,29.70,10.0,SSE,5.8,-,N/A,,Overcast,160,2013-09-19 17:33:00
12:53 PM,69.8,64.4,83,29.69,10.0,SSE,4.6,-,N/A,,Overcast,160,2013-09-19 17:53:00
1:12 PM,69.8,64.4,83,29.68,10.0,SSE,5.8,-,N/A,,Overcast,160,2013-09-19 18:12:00
1:33 PM,69.8,64.4,83,29.68,10.0,SW,3.5,-,N/A,,Overcast,220,2013-09-19 18:33:00
1:53 PM,68.0,64.4,88,29.67,10.0,Calm,Calm,-,N/A,Rain-Thunderstorm,Light Thunderstorms and Rain,0,2013-09-19 18:53:00
2:12 PM,68.0,64.4,88,29.68,7.0,SW,4.6,-,N/A,Thunderstorm,Overcast,220,2013-09-19 19:12:00
2:33 PM,66.2,64.4,94,29.68,3.0,SSW,6.9,-,N/A,Rain-Thunderstorm,Light Thunderstorms and Rain,210,2013-09-19 19:33:00
2:52 PM,64.4,64.4,100,29.68,1.0,South,6.9,-,N/A,Rain,Light Rain,190,2013-09-19 19:52:00
3:12 PM,64.4,64.4,100,29.67,2.0,SW,4.6,-,N/A,Rain,Rain,220,2013-09-19 20:12:00
3:33 PM,64.4,62.6,94,29.64,3.0,Calm,Calm,-,N/A,Rain-Thunderstorm,Rain,0,2013-09-19 20:33:00
3:52 PM,64.4,64.4,100,29.64,2.5,Calm,Calm,-,N/A,Rain,Rain,0,2013-09-19 20:52:00
4:12 PM,64.4,64.4,100,29.65,2.0,Calm,Calm,-,N/A,Rain,Light Rain,0,2013-09-19 21:12:00
4:33 PM,66.2,64.4,94,29.64,3.0,Calm,Calm,-,N/A,Rain,Light Rain,0,2013-09-19 21:33:00
4:52 PM,66.2,64.4,94,29.68,4.0,South,3.5,-,N/A,Rain,Light Rain,180,2013-09-19 21:52:00
5:12 PM,66.2,64.4,94,29.68,5.0,Calm,Calm,-,N/A,Rain,Light Rain,0,2013-09-19 22:12:00
5:33 PM,66.2,64.4,94,29.68,5.0,Calm,Calm,-,0.01,,Overcast,0,2013-09-19 22:33:00
5:52 PM,66.2,64.4,94,29.68,4.0,SE,3.5,-,0.01,,Overcast,130,2013-09-19 22:52:00
6:13 PM,66.2,64.4,94,29.68,5.0,SSE,3.5,-,N/A,,Overcast,160,2013-09-19 23:13:00
6:33 PM,66.2,64.4,94,29.68,4.0,Calm,Calm,-,N/A,,Drizzle,0,2013-09-19 23:33:00
6:52 PM,64.4,64.4,100,29.68,3.0,Calm,Calm,-,N/A,,Overcast,0,2013-09-19 23:52:00
7:13 PM,64.4,64.4,100,29.67,4.0,Calm,Calm,-,N/A,,Overcast,0,2013-09-20 00:13:00
7:33 PM,64.4,64.4,100,29.69,5.0,SSW,4.6,-,N/A,,Overcast,210,2013-09-20 00:33:00
7:52 PM,64.4,64.4,100,29.68,5.0,Calm,Calm,-,N/A,,Mostly Cloudy,0,2013-09-20 00:52:00
8:13 PM,64.4,64.4,100,29.69,4.0,SW,4.6,-,N/A,,Overcast,220,2013-09-20 01:13:00
8:33 PM,64.4,64.4,100,29.68,3.0,Calm,Calm,-,0.01,Rain,Light Rain,0,2013-09-20 01:33:00
8:52 PM,64.4,64.4,100,29.68,3.0,WSW,3.5,-,0.01,Rain,Light Rain,250,2013-09-20 01:52:00
9:13 PM,64.4,64.4,100,29.68,3.0,Calm,Calm,-,N/A,Rain,Light Rain,0,2013-09-20 02:13:00
9:33 PM,62.6,60.8,94,29.69,2.5,WNW,5.8,20.7,N/A,Rain,Heavy Rain,300,2013-09-20 02:33:00
9:52 PM,60.8,60.8,100,29.69,7.0,Calm,Calm,-,N/A,Rain,Light Rain,0,2013-09-20 02:52:00
10:13 PM,60.8,59.0,94,29.69,10.0,Calm,Calm,-,N/A,,Scattered Clouds,0,2013-09-20 03:13:00
10:33 PM,60.8,60.8,100,29.68,7.0,Calm,Calm,-,N/A,,Scattered Clouds,0,2013-09-20 03:33:00
10:52 PM,60.8,60.8,100,29.68,7.0,Calm,Calm,-,N/A,,Scattered Clouds,0,2013-09-20 03:52:00
11:13 PM,62.6,60.8,94,29.68,7.0,West,3.5,-,N/A,,Mostly Cloudy,280,2013-09-20 04:13:00
11:32 PM,62.6,60.8,94,29.69,7.0,West,4.6,-,N/A,,Overcast,280,2013-09-20 04:32:00
11:52 PM,62.6,60.8,94,29.68,10.0,WNW,8.1,-,N/A,,Overcast,300,2013-09-20 04:52:00